Waarnemingen

Advertentie
Mijn weer
Greifswalder Oie, Duitsland (10097): temperatuur & dauwpunt: 16.02.2017 11:00:00 - 22.02.2017 11:00:00 (CET)Greifswalder Oie, Duitsland (10097): temperatuur 5cm & temperatuur -5cm: 16.02.2017 11:00:00 - 22.02.2017 11:00:00 (CET)Greifswalder Oie, Duitsland (10097): temperatuur -20cm & temperatuur -100cm: 16.02.2017 11:00:00 - 22.02.2017 11:00:00 (CET)Greifswalder Oie, Duitsland (10097): windsnelheid & windstoten: 16.02.2017 11:00:00 - 22.02.2017 11:00:00 (CET)Greifswalder Oie, Duitsland (10097): windrichting: 16.02.2017 11:00:00 - 22.02.2017 11:00:00 (CET)Greifswalder Oie, Duitsland (10097): luchtdruk: 16.02.2017 11:00:00 - 22.02.2017 11:00:00 (CET)Greifswalder Oie, Duitsland (10097): zicht: 16.02.2017 11:00:00 - 22.02.2017 11:00:00 (CET)Greifswalder Oie, Duitsland (10097): neerslag: 16.02.2017 11:00:00 - 22.02.2017 11:00:00 (CET)
Datum & Tijd tt [°C] td [°C] tt 5cm [°C] tt -5cm [°C] tt -20cm [°C] tt -100cm [°C] ff [km/u] ff [kn] fx [km/u] fx [kn] dd ppp [hPa] vv [km] rr [mm]
22.02.2017 11:00:00 5,3 4,9 5,2 5,1 3,5 3,6 39 21 53 29 WZW 992,4 30 0,1
22.02.2017 10:00:00 5,7 5,2 5,4 4,8 3,3 3,6 45 24 54 29 WZW 992,2 7 0,8
22.02.2017 09:00:00 5,8 5,5 5,6 4,4 3,1 3,6 44 24 54 29 WZW 992,4 3,4 0,9
22.02.2017 08:00:00 5,6 5,2 5,3 3,9 3,0 3,6 47 25 56 30 ZW 992,6 4,4 0,4
22.02.2017 07:00:00 4,6 4,2 4,3 3,2 2,9 3,6 45 24 61 33 ZZW 993,2 2,8 1,9
22.02.2017 06:00:00 3,8 3,2 3,5 2,8 2,9 3,6 44 24 55 30 ZZW 994,9 3,3 1,6
22.02.2017 05:00:00 3,7 2,2 3,1 2,5 2,9 3,5 36 20 49 26 ZZW 997,6 7 0,0
22.02.2017 04:00:00 3,4 1,7 3,0 2,4 2,9 3,5 24 13 36 19 Z 1000,3 25 0,0
22.02.2017 03:00:00 3,5 1,7 3,1 2,2 2,9 3,5 29 16 40 22 ZZW 1002,7 23 0,0
22.02.2017 02:00:00 3,3 1,6 2,7 2,0 3,0 3,5 31 17 37 20 ZW 1004,2 20 0,0
22.02.2017 01:00:00 3,1 1,6 2,5 1,8 3,1 3,5 29 15 37 20 ZW 1005,8 19 0,0
22.02.2017 00:00:00 3,0 1,5 2,2 1,9 3,2 3,5 26 14 34 19 WZW 1006,8 19 0,0
21.02.2017 23:00:00 2,9 1,5 2,4 1,9 3,3 3,5 27 15 35 19 WZW 1006,9 19 0,0
21.02.2017 22:00:00 3,4 1,7 2,7 2,2 3,5 3,5 31 17 41 22 W 1006,8 20 0,0
21.02.2017 21:00:00 3,8 1,8 2,9 2,4 3,6 3,5 34 18 45 25 W 1006,8 20 0,0
21.02.2017 20:00:00 3,9 1,7 3,1 2,6 3,8 3,4 39 21 49 26 W 1006,3 22 0,0
21.02.2017 19:00:00 4,0 1,5 3,4 2,9 4,0 3,4 38 20 52 28 W 1005,7 21 0,0
21.02.2017 18:00:00 4,5 1,5 3,8 3,3 4,2 3,4 46 25 57 31 W 1005,0 23 0,0
21.02.2017 17:00:00 4,6 1,5 4,0 4,1 4,2 3,4 46 25 57 31 W 1004,3 22 0,0
21.02.2017 16:00:00 4,9 1,5 4,8 5,2 4,2 3,4 48 26 59 32 W 1003,7 4,7 0,0
21.02.2017 15:00:00 4,8 1,7 4,9 5,1 4,1 3,4 49 26 61 33 W 1003,3 9 0,0
21.02.2017 14:00:00 4,6 1,6 4,7 5,3 3,9 3,4 49 27 70 38 W 1002,9 5 0,0
21.02.2017 13:00:00 4,9 1,6 5,3 5,3 3,7 3,4 55 30 74 40 W 1002,3 4,3 0,0
21.02.2017 12:00:00 4,5 1,6 5,1 4,9 3,6 3,4 51 27 66 36 W 1002,1 7 0,0
21.02.2017 11:00:00 4,3 2,0 4,4 4,2 3,5 3,3 45 24 59 32 W 1002,2 10 0,0
21.02.2017 10:00:00 4,3 2,2 4,2 3,8 3,5 3,3 42 23 52 28 W 1002,0 15 0,0
21.02.2017 09:00:00 4,2 2,2 4,0 3,3 3,5 3,3 44 24 58 31 W 1001,4 13 0,0
21.02.2017 08:00:00 4,4 2,4 4,0 3,1 3,5 3,3 45 24 55 30 W 1001,2 21 0,0
21.02.2017 07:00:00 4,4 2,4 4,1 3,3 3,6 3,3 42 23 55 30 W 1000,6 20 0,0
21.02.2017 06:00:00 4,8 2,9 4,5 3,5 3,6 3,3 49 26 63 34 W 1000,5 20 0,1
21.02.2017 05:00:00 4,4 2,6 4,0 3,3 3,7 3,3 43 23 61 33 W 1000,2 24 0,0
21.02.2017 04:00:00 4,3 2,8 3,9 3,5 3,8 3,3 43 23 53 29 W 1000,2 24 0,0
21.02.2017 03:00:00 4,3 2,9 4,0 3,8 3,9 3,3 44 24 62 34 W 1000,2 25 0,0
21.02.2017 02:00:00 4,4 3,0 4,2 4,0 3,9 3,2 46 25 64 35 W 999,8 31 0,0
21.02.2017 01:00:00 4,7 3,7 4,4 4,3 3,9 3,2 52 28 66 35 W 999,6 21 0,0
21.02.2017 00:00:00 5,2 4,0 4,8 4,5 3,9 3,2 50 27 68 37 W 999,1 20 0,0
20.02.2017 23:00:00 5,1 4,6 5,0 4,8 3,9 3,2 56 30 72 39 W 999,2 3,7 0,4
20.02.2017 22:00:00 4,9 4,9 4,8 4,6 3,9 3,2 39 21 47 26 W 998,9 1,5 0,5
20.02.2017 21:00:00 4,8 4,8 4,8 4,8 3,9 3,2 40 22 55 30 WZW 999,0 0,3 0,5
20.02.2017 20:00:00 5,6 5,6 5,6 4,9 3,8 3,2 48 26 55 30 WZW 998,9 0,5 0,2
20.02.2017 19:00:00 5,7 5,4 5,6 4,9 3,7 3,2 47 26 57 31 WZW 999,7 1,8 0,0
20.02.2017 18:00:00 5,5 5,2 5,4 4,8 3,7 3,2 49 26 59 32 WZW 1000,1 4,8 0,0
20.02.2017 17:00:00 5,8 5,1 5,5 4,8 3,6 3,2 49 26 59 32 WZW 1000,9 10 0,2
20.02.2017 16:00:00 5,1 4,9 5,0 4,7 3,5 3,2 46 25 55 30 WZW 1002,0 3,0 0,0
20.02.2017 15:00:00 5,0 4,7 5,0 4,7 3,5 3,1 45 24 56 31 WZW 1002,9 3,0 0,0
20.02.2017 14:00:00 5,0 4,7 4,9 4,8 3,3 3,1 46 25 60 32 WZW 1003,6 3,2 0,0
20.02.2017 13:00:00 5,3 4,6 5,1 4,7 3,2 3,1 49 26 61 33 WZW 1004,5 5 0,1
20.02.2017 12:00:00 4,8 4,5 4,7 4,7 3,0 3,1 50 27 60 33 ZW 1005,6 2,8 0,3
20.02.2017 11:00:00 5,2 3,9 4,9 4,2 2,9 3,1 46 25 57 31 ZW 1006,7 7 0,0
20.02.2017 10:00:00 5,1 3,6 5,0 3,8 2,8 3,1 45 24 55 30 ZW 1007,8 10 0,0
20.02.2017 09:00:00 4,5 3,0 4,4 3,4 2,7 3,1 42 23 50 27 ZW 1009,0 11 0,0
20.02.2017 08:00:00 4,4 2,8 4,3 3,1 2,7 3,1 43 23 51 28 ZW 1009,8 21 0,0
20.02.2017 07:00:00 4,0 2,7 3,8 2,9 2,7 3,1 42 23 47 26 ZW 1010,4 16 0,0
20.02.2017 06:00:00 3,1 2,4 2,9 2,8 2,7 3,1 33 18 41 22 ZW 1011,1 6 0,0
20.02.2017 05:00:00 3,2 2,3 2,9 3,0 2,7 3,1 33 18 42 23 WZW 1012,0 4,4 0,0
20.02.2017 04:00:00 3,6 3,0 3,3 2,9 2,6 3,1 32 18 39 21 WZW 1012,3 3,7 0,0
20.02.2017 03:00:00 3,6 3,2 3,4 2,9 2,6 3,0 31 17 41 22 WZW 1012,9 2,3 0,0
20.02.2017 02:00:00 3,5 3,1 3,3 2,9 2,6 3,0 31 17 37 20 WZW 1013,3 2,7 0,0
20.02.2017 01:00:00 3,4 3,1 3,3 2,8 2,6 3,0 30 16 35 19 WZW 1013,5 2,4 0,0
20.02.2017 00:00:00 3,2 3,2 3,1 2,9 2,6 3,0 31 17 42 23 WZW 1013,9 1,1 0,0
19.02.2017 23:00:00 3,4 3,4 3,3 2,9 2,6 3,0 32 18 38 21 WZW 1014,2 0,3 0,0
19.02.2017 22:00:00 2,9 2,9 2,9 2,8 2,6 3,0 29 15 35 19 WZW 1014,2 0,1 0,0
19.02.2017 21:00:00 2,8 2,8 2,8 2,8 2,6 3,0 29 15 38 20 WZW 1014,6 0,1 0,0
19.02.2017 20:00:00 2,7 2,6 2,7 2,8 2,6 3,0 32 18 37 20 WZW 1014,3 0,1 0,0
19.02.2017 19:00:00 3,1 2,7 3,0 2,8 2,6 3,0 32 18 39 21 WZW 1014,1 1,1 0,0
19.02.2017 18:00:00 3,0 2,4 2,9 2,9 2,6 3,0 34 18 39 21 WZW 1013,9 2,2 0,0
19.02.2017 17:00:00 3,1 2,3 3,0 3,1 2,5 3,0 33 18 42 23 WZW 1013,9 3,0 0,0
19.02.2017 16:00:00 3,2 2,3 3,1 3,5 2,4 3,0 35 19 42 23 WZW 1013,8 3,1 0,0
19.02.2017 15:00:00 3,2 2,2 3,1 3,4 2,3 3,0 31 17 39 21 ZW 1014,1 2,9 0,0
19.02.2017 14:00:00 3,2 1,8 2,9 3,3 2,2 3,0 30 16 35 19 WZW 1014,6 3,1 0,4
19.02.2017 13:00:00 3,7 1,5 3,7 3,4 2,1 3,0 30 16 37 20 ZW 1014,8 3,7 0,0
19.02.2017 12:00:00 3,6 1,2 3,9 3,1 1,9 3,0 29 16 36 20 ZW 1015,5 4,1 0,0
19.02.2017 11:00:00 3,1 0,9 3,2 2,8 1,8 3,0 32 17 40 22 ZW 1015,8 3,8 0,1
19.02.2017 10:00:00 3,1 0,9 2,9 2,1 1,7 2,9 35 19 47 25 ZW 1016,1 3,7 0,0
19.02.2017 09:00:00 3,2 0,8 3,1 2,0 1,7 2,9 41 22 48 26 ZW 1016,3 4,3 0,0
19.02.2017 08:00:00 3,2 0,7 2,9 1,7 1,6 2,9 40 22 52 28 ZW 1016,5 5 0,0
19.02.2017 07:00:00 3,3 0,8 3,0 1,6 1,6 2,9 38 21 47 25 ZW 1016,7 7 0,0
19.02.2017 06:00:00 2,5 0,6 2,3 1,5 1,6 2,9 34 19 41 22 ZZW 1017,6 8 0,0
19.02.2017 05:00:00 2,6 0,8 2,2 1,4 1,6 2,9 33 18 40 22 ZW 1018,5 8 0,0
19.02.2017 04:00:00 2,5 0,7 2,3 1,5 1,6 2,9 33 18 41 22 ZW 1019,2 8 0,0
19.02.2017 03:00:00 2,4 0,7 2,1 1,4 1,6 2,9 27 14 32 18 ZW 1020,0 7 0,0
19.02.2017 02:00:00 2,4 0,7 2,2 1,5 1,6 2,9 28 15 38 21 ZW 1020,7 7 0,0
19.02.2017 01:00:00 2,4 0,8 2,1 1,5 1,6 2,9 29 16 35 19 ZW 1021,4 7 0,0
19.02.2017 00:00:00 1,9 0,6 1,7 1,4 1,6 2,9 27 15 36 19 WZW 1022,0 7 0,0
18.02.2017 23:00:00 2,1 0,9 1,9 1,5 1,6 2,9 28 15 34 18 WZW 1022,4 9 0,0
18.02.2017 22:00:00 2,0 1,2 1,8 1,5 1,6 2,9 25 14 30 16 WZW 1022,7 10 0,0
18.02.2017 21:00:00 2,0 1,2 1,8 1,5 1,5 2,9 21 12 29 16 WZW 1022,9 10 0,0
18.02.2017 20:00:00 2,0 1,3 1,8 1,5 1,6 2,9 24 13 29 16 WZW 1023,0 14 0,0
18.02.2017 19:00:00 1,7 0,9 1,5 1,5 1,6 2,9 22 12 27 15 W 1023,1 14 0,0
18.02.2017 18:00:00 1,5 0,7 1,4 1,6 1,5 2,9 19 10 30 16 WZW 1023,1 22 0,0
18.02.2017 17:00:00 1,8 0,9 1,7 1,9 1,5 2,9 27 15 32 18 W 1023,0 21 0,0
18.02.2017 16:00:00 1,7 1,0 1,6 2,2 1,4 2,9 18 10 27 15 WZW 1023,0 12 0,0
18.02.2017 15:00:00 1,6 1,2 1,6 2,2 1,3 2,9 21 12 30 16 W 1023,2 8 0,0
18.02.2017 14:00:00 1,5 1,1 1,7 2,3 1,1 2,9 22 12 29 16 W 1023,2 7 0,0
18.02.2017 13:00:00 1,4 1,0 1,6 2,3 0,8 2,9 24 13 31 17 W 1023,5 5 0,0
18.02.2017 12:00:00 1,7 1,4 2,0 2,4 0,5 2,9 21 12 35 19 WZW 1023,4 4,9 0,0
18.02.2017 11:00:00 1,5 1,5 1,8 1,5 0,3 2,9 17 9 25 13 WZW 1023,2 0,4 0,0
18.02.2017 10:00:00 1,3 1,2 1,4 1,1 0,3 2,9 16 9 25 13 W 1023,2 0,8 0,0
18.02.2017 09:00:00 1,5 1,3 1,5 0,9 0,2 2,9 18 10 23 12 W 1023,0 1,5 0,0
18.02.2017 08:00:00 1,4 1,3 1,4 0,8 0,2 2,9 19 10 24 13 W 1022,6 1,6 0,0
18.02.2017 07:00:00 1,6 1,4 1,5 0,7 0,1 2,9 20 11 23 12 W 1022,2 2,4 0,0
18.02.2017 06:00:00 1,4 1,3 1,4 0,7 0,1 2,9 18 10 21 11 W 1022,0 2,2 0,0
18.02.2017 05:00:00 1,3 1,2 1,3 0,7 0,1 2,9 19 10 23 13 W 1021,6 1,8 0,0
18.02.2017 04:00:00 1,3 1,3 1,3 0,7 0,1 2,9 18 10 23 12 W 1021,3 0,8 0,0
18.02.2017 03:00:00 1,3 1,2 1,3 0,7 0,1 2,9 13 7 21 11 W 1021,5 0,6 0,0
18.02.2017 02:00:00 1,4 1,4 1,4 0,7 0,1 2,9 16 9 23 13 WZW 1021,3 1,6 0,0
18.02.2017 01:00:00 1,5 1,5 1,5 0,7 0,1 2,9 18 10 22 12 W 1021,3 1,9 0,0
18.02.2017 00:00:00 1,4 1,4 1,3 0,7 0,1 2,9 15 8 21 11 W 1021,3 0,5 0,0
17.02.2017 23:00:00 1,5 1,5 1,5 0,8 0,1 2,9 21 11 26 14 W 1021,2 0,1 0,0
17.02.2017 22:00:00 1,4 1,3 1,4 0,8 0,1 2,9 23 12 28 15 W 1020,8 0,1 0,0
17.02.2017 21:00:00 1,5 1,5 1,5 0,8 0,1 2,9 23 12 27 15 W 1020,5 0,3 0,0
17.02.2017 20:00:00 1,3 1,2 1,3 0,8 0,1 2,9 15 8 22 12 W 1020,3 0,4 0,0
17.02.2017 19:00:00 1,7 1,7 1,7 0,9 0,1 2,9 16 9 22 12 W 1020,0 0,1 0,0
17.02.2017 18:00:00 1,7 1,7 1,7 1,1 0,1 2,9 20 11 25 14 W 1019,4 0,1 0,0
17.02.2017 17:00:00 1,8 1,8 1,8 1,4 0,1 2,9 21 11 25 13 W 1018,9 0,1 0,0
17.02.2017 16:00:00 1,6 1,6 1,8 1,9 0,1 2,9 17 9 19 11 W 1018,5 0,1 0,0
17.02.2017 15:00:00 1,8 1,8 2,1 2,1 0,1 2,9 17 9 21 11 W 1018,2 0,1 0,0
17.02.2017 14:00:00 2,1 2,1 2,7 2,3 0,0 2,9 17 9 21 12 W 1018,0 0,1 0,0
17.02.2017 13:00:00 1,8 1,6 2,2 1,8 0,1 2,9 18 10 23 12 W 1018,1 0,4 0,0
17.02.2017 12:00:00 2,1 1,8 2,4 1,6 0,1 2,9 19 11 23 13 W 1018,1 1,7 0,0
17.02.2017 11:00:00 2,0 1,9 2,0 1,1 0,0 2,9 17 9 23 13 WZW 1017,9 1,2 0,0
17.02.2017 10:00:00 2,3 2,1 2,4 1,1 0,0 2,9 19 10 21 12 ZW 1017,7 0,7 0,0
17.02.2017 09:00:00 2,4 2,1 2,3 1,0 0,0 2,9 17 9 23 13 ZW 1017,8 1,2 0,3
17.02.2017 08:00:00 2,5 2,1 2,2 0,8 0,0 2,9 19 10 23 12 ZW 1017,9 1,9 1,7
17.02.2017 07:00:00 2,5 1,7 2,1 0,7 0,0 2,9 16 9 25 13 ZZW 1018,0 2,9 0,2
17.02.2017 06:00:00 2,7 1,6 2,4 0,6 0,0 2,9 24 13 26 14 ZW 1018,4 4,4 0,0
17.02.2017 05:00:00 2,6 1,4 2,2 0,8 0,0 2,9 24 13 31 17 WZW 1018,9 3,6 0,0
17.02.2017 04:00:00 3,1 2,2 2,9 0,8 0,0 2,9 27 15 34 19 WZW 1019,3 2,3 0,0
17.02.2017 03:00:00 3,1 2,5 2,9 0,8 0,0 2,9 25 13 29 15 ZW 1019,8 2,0 0,0
17.02.2017 02:00:00 3,0 2,4 2,9 0,8 0,0 2,9 25 14 30 16 WZW 1020,5 1,9 0,0
17.02.2017 01:00:00 2,8 2,1 2,7 0,7 0,0 3,0 19 10 21 11 ZW 1021,3 2,6 0,0
17.02.2017 00:00:00 3,7 2,8 3,2 0,6 0,0 3,0 12 7 17 9 ZW 1021,7 3,5 0,0
16.02.2017 23:00:00 3,0 2,2 2,4 0,1 0,0 3,0 17 9 23 12 WZW 1022,0 3,4 0,0
16.02.2017 22:00:00 2,5 2,0 1,5 -0,1 0,0 3,0 22 12 26 14 ZW 1022,5 2,0 0,0
16.02.2017 21:00:00 1,9 1,5 1,1 0,3 0,0 3,0 14 8 30 16 WZW 1022,9 1,4 0,0
16.02.2017 20:00:00 2,7 2,0 2,5 0,5 0,0 3,0 24 13 29 16 W 1023,2 2,3 0,0
16.02.2017 19:00:00 2,3 1,4 1,9 0,1 0,0 3,0 17 9 34 18 W 1023,7 3,1 0,0
16.02.2017 18:00:00 4,3 1,7 3,2 0,4 0,0 3,0 32 18 36 19 WZW 1023,6 9 0,0
16.02.2017 17:00:00 4,4 1,7 3,5 0,7 0,0 3,0 30 16 33 18 ZW 1023,8 9 0,0
16.02.2017 16:00:00 4,9 1,8 4,4 1,0 0,0 3,0 31 17 36 19 WZW 1024,0 7 0,0
16.02.2017 15:00:00 5,3 1,9 4,9 1,0 0,0 3,0 31 17 39 21 WZW 1024,2 8 0,0
16.02.2017 14:00:00 5,3 1,6 5,3 0,7 0,0 3,0 30 16 35 19 WZW 1024,7 - 0,0
16.02.2017 13:00:00 4,0 1,0 4,7 -0,1 0,0 3,0 23 12 26 14 WZW 1025,4 2,1 0,0
16.02.2017 12:00:00 3,2 -0,1 3,7 -0,2 0,0 3,0 26 14 30 16 WZW 1026,2 2,3 0,0
16.02.2017 11:00:00 3,0 -0,6 3,5 -0,2 0,0 3,0 23 13 27 15 WZW 1026,5 - 0,0

tt = temperatuur
td = dauwpunt
tt 5cm = temperatuur 5cm
tt -5cm = temperatuur -5cm
tt -20cm = temperatuur -20cm
tt -100cm = temperatuur -100cm
ff = windsnelheid
fx = windstoten
dd = windrichting
ppp = luchtdruk
vv = zicht
rr = neerslag

Weerstations in de omgeving